Regional Weather Roundup
Issued by NWS

Home | Current Version | Previous Version | Text Only | Print | Product List | Glossary On
Versions: 1 2 3 4 5 6 7 8 9 10 11 12 13 14 15 16 17 18 19 20 21 22 23 24 25 26 27 28 29 30 31 32 33 34 35 36 37 38 39 40 41 42 43 44 45 46 47 48 49 50
750
ASUS44 KJAN 200410
RWRMS

MISSISSIPPI HOURLY WEATHER ROUNDUP
NATIONAL WEATHER SERVICE JACKSON MS
1100 PM CDT FRI SEP 19 2014

NOTE: "FAIR: INDICATES FEW OR NO CLOUDS BELOW 12,000 FEET WITH NO
SIGNIFICANT WEATHER AND/OR OBSTRUCTIONS TO VISIBILITY.

MSZ001>002-007>008-010>013-018>021-025>028-034>036-200500-
NORTHWEST MISSISSIPPI

CITY           SKY/WX    TMP DP  RH WIND       PRES   REMARKS
CLARKSDALE     FAIR      70  70 100 CALM      30.03R
CLEVELAND      FAIR      73  70  91 E5        30.00S
GREENWOOD      CLEAR     72  68  87 NE3       30.00S
GREENVILLE     CLEAR     72  65  78 CALM      29.99S
GRENADA        FAIR      70  68  94 CALM      30.02S
OLIVE BRANCH   CLEAR     70  70 100 CALM      30.04S
OXFORD         FAIR      66  66 100 CALM      30.05S
TUNICA         CLEAR     68  66  94 CALM      30.03S
$$

MSZ003>006-009-014>017-022>024-029>033-037>039-200500-
NORTHEAST MISSISSIPPI

CITY           SKY/WX    TMP DP  RH WIND       PRES   REMARKS
COLUMBUS AFB   CLEAR     71  67  87 E1        30.03R
CORINTH          N/A     66  64  94 CALM      30.04R
GOLDN TRIANGLE CLEAR     75  64  69 E8        30.03S
STARKVILLE     FAIR      73  64  73 E5        30.03R
TUPELO         CLEAR     73  68  84 NE3       30.03R
$$

MSZ040-058-200500-
CENTRAL MISSISSIPPI

CITY           SKY/WX    TMP DP  RH WIND       PRES   REMARKS
JACKSON INTL   CLEAR     72  69  90 CALM      30.00R
JACKSON HAWKNS CLEAR     74  69  85 CALM      30.00S
MERIDIAN KEY   MOCLDY    71  68  90 CALM      30.02R
MERIDIAN NAS   CLEAR     73  64  73 E5        30.02R
RAYMOND        FAIR      72  66  83 CALM      30.00S HAZE
VICKSBURG      CLEAR     70  68  93 CALM      29.98S
$$

MSZ059>079-200500-
SOUTH MISSISSIPPI

CITY           SKY/WX    TMP DP  RH WIND       PRES   REMARKS
BROOKHAVEN     FAIR      70  70 100 CALM      30.02S
COLUMBIA       FAIR      70  68  94 CALM      29.99R FOG
HATTIESBURG    CLEAR     71  69  93 CALM      30.02R
MCCOMB         CLEAR     71  68  90 CALM      30.00S
NATCHEZ        MOCLDY    73  70  88 CALM      29.99F
PINE BELT      CLEAR    N/A N/A N/A CALM      30.01S
$$

MSZ080>082-200500-
COASTAL MISSISSIPPI

CITY           SKY/WX    TMP DP  RH WIND       PRES   REMARKS
BILOXI         CLEAR     75  68  79 E3        29.98S
PASCAGOULA     CLEAR     69  68  96 CALM      29.99R
GULFPORT       CLEAR     76  68  76 NE3       29.98S
$$



USA.gov is the U.S. government's official web portal to all federal, state and local government web resources and services.